User: anonymous   Login
Location: Unspecified
(0.0000°N, 0.0000°E)
Time: 00:25:09
(UTC+01:00)
Language:

Delta 168 - Orbit

View from above orbital plane
View from above orbital plane
View from above satellite
View from above satellite

Ground track
Ground track

The orbit data is extracted from the following two-line orbital elements,

1 14051U 83041B   15058.75393683  .00008077  00000-0  79412-3 0  9998
2 14051 025.3306 209.6521 1116929 148.1223 355.0062 13.03864935468413
Epoch (UTC): 27 February 2015 18:05:40
Eccentricity: 0.1116929
inclination: 25.3306°
perigee height: 395 km
apogee height: 2098 km
right ascension of ascending node: 209.6521°
argument of perigee: 148.1223°
revolutions per day: 13.03864935
mean anomaly at epoch: 355.0062°
orbit number at epoch: 46841

The dashed part of the orbit path shows where the satellite is in the earth's shadow,  

DLR